contact:dominique.lefevre@mio.osupytheas.fr, maurice.libes@osupytheas.fr, didier.mallarino@osupytheas.fr
Project:EMSO http://www.emso-fr.org/EMSO-France
Depth: 2436.0 m
Title:EMSO Ligure Ouest : Data MII capteur MICROCAT
DateTime_Computer,Latitude,Longitude,Temperature,Conductivity,Pressure,DateTime_Instrument
DateTime_Computer,Latitude,Longitude,degC,S m-1,dbar,DateTime_Instrument
2022-02-22T00:02:20Z,42.805,6.029,13.3000,4.60030,2470.53,2022-2-22T02:03:54Z
2022-02-22T00:05:23Z,42.805,6.029,13.3000,4.60031,2470.52,2022-2-22T02:06:57Z
2022-02-22T00:08:26Z,42.805,6.029,13.3002,4.60030,2470.507,2022-2-22T02:10:00Z
2022-02-22T00:11:29Z,42.805,6.029,13.3006,4.60030,2470.52,2022-2-22T02:13:03Z
2022-02-22T00:14:32Z,42.805,6.029,13.3000,4.60036,2470.507,2022-2-22T02:16:06Z
2022-02-22T00:17:35Z,42.805,6.029,13.3001,4.60031,2470.507,2022-2-22T02:19:09Z
2022-02-22T00:20:38Z,42.805,6.029,13.3002,4.60029,2470.507,2022-2-22T02:22:12Z
2022-02-22T00:23:41Z,42.805,6.029,13.3004,4.60029,2470.46,2022-2-22T02:25:16Z
2022-02-22T00:26:45Z,42.805,6.029,13.3003,4.60033,2470.507,2022-2-22T02:28:19Z
2022-02-22T00:29:48Z,42.805,6.029,13.3002,4.60031,2470.544,2022-2-22T02:31:22Z
2022-02-22T00:32:51Z,42.805,6.029,13.3004,4.60033,2470.553,2022-2-22T02:34:25Z
2022-02-22T00:35:54Z,42.805,6.029,13.3001,4.60032,2470.507,2022-2-22T02:37:28Z
2022-02-22T00:38:57Z,42.805,6.029,13.3004,4.60030,2470.52,2022-2-22T02:40:31Z
2022-02-22T00:42:00Z,42.805,6.029,13.3001,4.60031,2470.52,2022-2-22T02:43:34Z
2022-02-22T00:45:03Z,42.805,6.029,13.2998,4.60030,2470.497,2022-2-22T02:46:37Z
2022-02-22T00:48:06Z,42.805,6.029,13.3004,4.60029,2470.544,2022-2-22T02:49:40Z
2022-02-22T00:51:10Z,42.805,6.029,13.2999,4.60029,2470.507,2022-2-22T02:52:44Z
2022-02-22T00:54:13Z,42.805,6.029,13.2999,4.60029,2470.497,2022-2-22T02:55:47Z
2022-02-22T00:57:16Z,42.805,6.029,13.3003,4.60029,2470.483,2022-2-22T02:58:50Z
2022-02-22T01:00:19Z,42.805,6.029,13.3000,4.60030,2470.497,2022-2-22T03:01:53Z
2022-02-22T01:03:22Z,42.805,6.029,13.3005,4.60031,2470.483,2022-2-22T03:04:56Z
2022-02-22T01:06:25Z,42.805,6.029,13.3002,4.60029,2470.483,2022-2-22T03:07:59Z
2022-02-22T01:09:28Z,42.805,6.029,13.3000,4.60029,2470.497,2022-2-22T03:11:02Z
2022-02-22T01:12:31Z,42.805,6.029,13.3001,4.60029,2470.46,2022-2-22T03:14:05Z
2022-02-22T01:15:35Z,42.805,6.029,13.3001,4.60032,2470.46,2022-2-22T03:17:09Z
2022-02-22T01:18:38Z,42.805,6.029,13.2999,4.60029,2470.474,2022-2-22T03:20:12Z
2022-02-22T01:21:41Z,42.805,6.029,13.3004,4.60029,2470.483,2022-2-22T03:23:15Z
2022-02-22T01:24:44Z,42.805,6.029,13.3000,4.60033,2470.474,2022-2-22T03:26:18Z
2022-02-22T01:27:47Z,42.805,6.029,13.2998,4.60029,2470.497,2022-2-22T03:29:21Z
2022-02-22T01:30:50Z,42.805,6.029,13.3001,4.60032,2470.45,2022-2-22T03:32:24Z
2022-02-22T01:33:53Z,42.805,6.029,13.3001,4.60032,2470.46,2022-2-22T03:35:27Z
2022-02-22T01:36:56Z,42.805,6.029,13.3003,4.60030,2470.483,2022-2-22T03:38:30Z
2022-02-22T01:39:59Z,42.805,6.029,13.3002,4.60029,2470.46,2022-2-22T03:41:34Z
2022-02-22T01:43:03Z,42.805,6.029,13.3004,4.60030,2470.46,2022-2-22T03:44:37Z
2022-02-22T01:46:06Z,42.805,6.029,13.3001,4.60030,2470.46,2022-2-22T03:47:40Z
2022-02-22T01:49:09Z,42.805,6.029,13.3004,4.60033,2470.45,2022-2-22T03:50:43Z
2022-02-22T01:52:12Z,42.805,6.029,13.3001,4.60031,2470.46,2022-2-22T03:53:46Z
2022-02-22T01:55:15Z,42.805,6.029,13.3002,4.60034,2470.474,2022-2-22T03:56:49Z
2022-02-22T01:58:18Z,42.805,6.029,13.3005,4.60031,2470.46,2022-2-22T03:59:52Z
2022-02-22T02:01:21Z,42.805,6.029,13.3004,4.60031,2470.46,2022-2-22T04:02:55Z
2022-02-22T02:04:25Z,42.805,6.029,13.3004,4.60038,2470.474,2022-2-22T04:05:59Z
2022-02-22T02:07:28Z,42.805,6.029,13.3000,4.60037,2470.46,2022-2-22T04:09:02Z
2022-02-22T02:10:31Z,42.805,6.029,13.3003,4.60032,2470.46,2022-2-22T04:12:05Z
2022-02-22T02:13:34Z,42.805,6.029,13.3003,4.60035,2470.437,2022-2-22T04:15:08Z
2022-02-22T02:16:37Z,42.805,6.029,13.3006,4.60032,2470.437,2022-2-22T04:18:11Z
2022-02-22T02:19:40Z,42.805,6.029,13.3004,4.60031,2470.46,2022-2-22T04:21:14Z
2022-02-22T02:22:43Z,42.805,6.029,13.3001,4.60031,2470.413,2022-2-22T04:24:17Z
2022-02-22T02:25:46Z,42.805,6.029,13.3000,4.60031,2470.474,2022-2-22T04:27:20Z
2022-02-22T02:28:49Z,42.805,6.029,13.3003,4.60033,2470.437,2022-2-22T04:30:24Z
2022-02-22T02:31:53Z,42.805,6.029,13.3004,4.60031,2470.437,2022-2-22T04:33:27Z
2022-02-22T02:34:56Z,42.805,6.029,13.3003,4.60032,2470.45,2022-2-22T04:36:30Z
2022-02-22T02:37:59Z,42.805,6.029,13.3006,4.60031,2470.474,2022-2-22T04:39:33Z
2022-02-22T02:41:02Z,42.805,6.029,13.3002,4.60033,2470.413,2022-2-22T04:42:36Z
2022-02-22T02:44:05Z,42.805,6.029,13.3005,4.60032,2470.413,2022-2-22T04:45:39Z
2022-02-22T02:47:08Z,42.805,6.029,13.3000,4.60031,2470.437,2022-2-22T04:48:42Z
2022-02-22T02:50:11Z,42.805,6.029,13.3005,4.60031,2470.437,2022-2-22T04:51:45Z
2022-02-22T02:53:14Z,42.805,6.029,13.3003,4.60032,2470.413,2022-2-22T04:54:49Z
2022-02-22T02:56:18Z,42.805,6.029,13.3004,4.60032,2470.413,2022-2-22T04:57:52Z
2022-02-22T02:59:21Z,42.805,6.029,13.3002,4.60033,2470.46,2022-2-22T05:00:55Z
2022-02-22T03:02:24Z,42.805,6.029,13.3006,4.60031,2470.427,2022-2-22T05:03:58Z
2022-02-22T03:05:27Z,42.805,6.029,13.3000,4.60031,2470.45,2022-2-22T05:07:01Z
2022-02-22T03:08:30Z,42.805,6.029,13.3000,4.60032,2470.437,2022-2-22T05:10:04Z
2022-02-22T03:11:33Z,42.805,6.029,13.3003,4.60033,2470.437,2022-2-22T05:13:07Z
2022-02-22T03:14:36Z,42.805,6.029,13.3004,4.60031,2470.413,2022-2-22T05:16:10Z
2022-02-22T03:17:39Z,42.805,6.029,13.3001,4.60031,2470.399,2022-2-22T05:19:14Z
2022-02-22T03:20:43Z,42.805,6.029,13.3004,4.60031,2470.413,2022-2-22T05:22:17Z
2022-02-22T03:23:46Z,42.805,6.029,13.3000,4.60031,2470.404,2022-2-22T05:25:20Z
2022-02-22T03:26:49Z,42.805,6.029,13.3000,4.60032,2470.39,2022-2-22T05:28:23Z
2022-02-22T03:29:52Z,42.805,6.029,13.3004,4.60031,2470.39,2022-2-22T05:31:26Z
2022-02-22T03:32:55Z,42.805,6.029,13.3004,4.60031,2470.39,2022-2-22T05:34:29Z
2022-02-22T03:35:58Z,42.805,6.029,13.3004,4.60031,2470.437,2022-2-22T05:37:32Z
2022-02-22T03:39:01Z,42.805,6.029,13.3000,4.60035,2470.413,2022-2-22T05:40:35Z
2022-02-22T03:42:04Z,42.805,6.029,13.3005,4.60031,2470.366,2022-2-22T05:43:39Z
2022-02-22T03:45:08Z,42.805,6.029,13.3005,4.60035,2470.427,2022-2-22T05:46:42Z
2022-02-22T03:48:11Z,42.805,6.029,13.3000,4.60032,2470.39,2022-2-22T05:49:45Z
2022-02-22T03:51:14Z,42.805,6.029,13.2998,4.60030,2470.413,2022-2-22T05:52:48Z
2022-02-22T03:54:17Z,42.805,6.029,13.3005,4.60030,2470.413,2022-2-22T05:55:51Z
2022-02-22T03:57:20Z,42.805,6.029,13.3000,4.60035,2470.39,2022-2-22T05:58:54Z
2022-02-22T04:00:23Z,42.805,6.029,13.3001,4.60031,2470.39,2022-2-22T06:01:57Z
2022-02-22T04:03:26Z,42.805,6.029,13.3002,4.60033,2470.413,2022-2-22T06:05:00Z
2022-02-22T04:06:29Z,42.805,6.029,13.2996,4.60033,2470.39,2022-2-22T06:08:04Z
2022-02-22T04:09:33Z,42.805,6.029,13.3002,4.60031,2470.413,2022-2-22T06:11:07Z
2022-02-22T04:12:36Z,42.805,6.029,13.3003,4.60035,2470.39,2022-2-22T06:14:10Z
2022-02-22T04:15:39Z,42.805,6.029,13.3004,4.60029,2470.39,2022-2-22T06:17:13Z
2022-02-22T04:18:42Z,42.805,6.029,13.3004,4.60031,2470.45,2022-2-22T06:20:16Z
2022-02-22T04:21:45Z,42.805,6.029,13.3004,4.60031,2470.39,2022-2-22T06:23:19Z
2022-02-22T04:24:48Z,42.805,6.029,13.3001,4.60031,2470.404,2022-2-22T06:26:22Z
2022-02-22T04:27:51Z,42.805,6.029,13.3001,4.60031,2470.404,2022-2-22T06:29:25Z
2022-02-22T04:30:54Z,42.805,6.029,13.3006,4.60036,2470.39,2022-2-22T06:32:29Z
2022-02-22T04:33:58Z,42.805,6.029,13.3002,4.60031,2470.427,2022-2-22T06:35:32Z
2022-02-22T04:37:01Z,42.805,6.029,13.3001,4.60031,2470.39,2022-2-22T06:38:35Z
2022-02-22T04:40:04Z,42.805,6.029,13.3000,4.60031,2470.366,2022-2-22T06:41:38Z
2022-02-22T04:43:07Z,42.805,6.029,13.3006,4.60032,2470.38,2022-2-22T06:44:41Z
2022-02-22T04:46:10Z,42.805,6.029,13.3004,4.60032,2470.427,2022-2-22T06:47:44Z
2022-02-22T04:49:13Z,42.805,6.029,13.3004,4.60032,2470.39,2022-2-22T06:50:47Z
2022-02-22T04:52:16Z,42.805,6.029,13.3006,4.60035,2470.39,2022-2-22T06:53:50Z
2022-02-22T04:55:19Z,42.805,6.029,13.3003,4.60032,2470.357,2022-2-22T06:56:53Z
2022-02-22T04:58:22Z,42.805,6.029,13.3004,4.60033,2470.38,2022-2-22T06:59:57Z
2022-02-22T05:01:26Z,42.805,6.029,13.3006,4.60032,2470.404,2022-2-22T07:03:00Z
2022-02-22T05:04:29Z,42.805,6.029,13.3004,4.60031,2470.38,2022-2-22T07:06:03Z
2022-02-22T05:07:32Z,42.805,6.029,13.3005,4.60033,2470.366,2022-2-22T07:09:06Z
2022-02-22T05:10:35Z,42.805,6.029,13.3006,4.60033,2470.343,2022-2-22T07:12:09Z
2022-02-22T05:13:38Z,42.805,6.029,13.3006,4.60034,2470.38,2022-2-22T07:15:12Z
2022-02-22T05:16:41Z,42.805,6.029,13.3006,4.60033,2470.404,2022-2-22T07:18:15Z
2022-02-22T05:19:44Z,42.805,6.029,13.3009,4.60033,2470.366,2022-2-22T07:21:18Z
2022-02-22T05:22:47Z,42.805,6.029,13.3005,4.60033,2470.366,2022-2-22T07:24:22Z
2022-02-22T05:25:51Z,42.805,6.029,13.3004,4.60033,2470.39,2022-2-22T07:27:25Z
2022-02-22T05:28:54Z,42.805,6.029,13.3002,4.60034,2470.39,2022-2-22T07:30:28Z
2022-02-22T05:31:57Z,42.805,6.029,13.3003,4.60033,2470.366,2022-2-22T07:33:31Z
2022-02-22T05:35:00Z,42.805,6.029,13.3001,4.60032,2470.366,2022-2-22T07:36:34Z
2022-02-22T05:38:03Z,42.805,6.029,13.3006,4.60031,2470.366,2022-2-22T07:39:37Z
2022-02-22T05:41:06Z,42.805,6.029,13.3005,4.60031,2470.343,2022-2-22T07:42:40Z
2022-02-22T05:44:09Z,42.805,6.029,13.3005,4.60033,2470.343,2022-2-22T07:45:43Z
2022-02-22T05:47:12Z,42.805,6.029,13.3002,4.60032,2470.404,2022-2-22T07:48:47Z
2022-02-22T05:50:16Z,42.805,6.029,13.3006,4.60031,2470.39,2022-2-22T07:51:50Z
2022-02-22T05:53:19Z,42.805,6.029,13.3004,4.60031,2470.366,2022-2-22T07:54:53Z
2022-02-22T05:56:22Z,42.805,6.029,13.3001,4.60033,2470.39,2022-2-22T07:57:56Z
2022-02-22T05:59:25Z,42.805,6.029,13.3002,4.60031,2470.357,2022-2-22T08:00:59Z
2022-02-22T06:02:28Z,42.805,6.029,13.3003,4.60031,2470.39,2022-2-22T08:04:02Z
2022-02-22T06:05:31Z,42.805,6.029,13.3002,4.60029,2470.404,2022-2-22T08:07:05Z
2022-02-22T06:08:34Z,42.805,6.029,13.3006,4.60029,2470.39,2022-2-22T08:10:08Z
2022-02-22T06:11:37Z,42.805,6.029,13.3000,4.60031,2470.366,2022-2-22T08:13:12Z
2022-02-22T06:14:41Z,42.805,6.029,13.3002,4.60031,2470.366,2022-2-22T08:16:15Z
2022-02-22T06:17:44Z,42.805,6.029,13.3003,4.60032,2470.366,2022-2-22T08:19:18Z
2022-02-22T06:20:47Z,42.805,6.029,13.3002,4.60031,2470.366,2022-2-22T08:22:21Z
2022-02-22T06:23:50Z,42.805,6.029,13.3004,4.60031,2470.413,2022-2-22T08:25:24Z
2022-02-22T06:26:53Z,42.805,6.029,13.3003,4.60034,2470.366,2022-2-22T08:28:27Z
2022-02-22T06:29:56Z,42.805,6.029,13.3004,4.60031,2470.357,2022-2-22T08:31:30Z
2022-02-22T06:32:59Z,42.805,6.029,13.3006,4.60030,2470.39,2022-2-22T08:34:33Z
2022-02-22T06:36:02Z,42.805,6.029,13.3004,4.60030,2470.38,2022-2-22T08:37:37Z
2022-02-22T06:39:06Z,42.805,6.029,13.3003,4.60031,2470.38,2022-2-22T08:40:40Z
2022-02-22T06:42:09Z,42.805,6.029,13.3000,4.60030,2470.39,2022-2-22T08:43:43Z
2022-02-22T06:45:12Z,42.805,6.029,13.3004,4.60032,2470.39,2022-2-22T08:46:46Z
2022-02-22T06:48:15Z,42.805,6.029,13.3004,4.60031,2470.404,2022-2-22T08:49:49Z
2022-02-22T06:51:18Z,42.805,6.029,13.3005,4.60031,2470.357,2022-2-22T08:52:52Z
2022-02-22T06:54:21Z,42.805,6.029,13.3001,4.60031,2470.404,2022-2-22T08:55:55Z
2022-02-22T06:57:24Z,42.805,6.029,13.3001,4.60033,2470.32,2022-2-22T08:58:58Z
2022-02-22T07:00:27Z,42.805,6.029,13.3000,4.60033,2470.366,2022-2-22T09:02:02Z
2022-02-22T07:03:31Z,42.805,6.029,13.3002,4.60031,2470.404,2022-2-22T09:05:05Z
2022-02-22T07:06:34Z,42.805,6.029,13.3006,4.60033,2470.39,2022-2-22T09:08:08Z
2022-02-22T07:09:37Z,42.805,6.029,13.3004,4.60031,2470.353,2022-2-22T09:11:11Z
2022-02-22T07:12:40Z,42.805,6.029,13.3004,4.60032,2470.366,2022-2-22T09:14:14Z
2022-02-22T07:15:43Z,42.805,6.029,13.3004,4.60034,2470.404,2022-2-22T09:17:17Z
2022-02-22T07:18:46Z,42.805,6.029,13.3003,4.60031,2470.413,2022-2-22T09:20:20Z
2022-02-22T07:21:49Z,42.805,6.029,13.3000,4.60031,2470.343,2022-2-22T09:23:23Z
2022-02-22T07:24:52Z,42.805,6.029,13.3002,4.60031,2470.404,2022-2-22T09:26:26Z
2022-02-22T07:27:55Z,42.805,6.029,13.3004,4.60032,2470.39,2022-2-22T09:29:30Z
2022-02-22T07:30:59Z,42.805,6.029,13.3004,4.60031,2470.39,2022-2-22T09:32:33Z
2022-02-22T07:34:02Z,42.805,6.029,13.3005,4.60031,2470.357,2022-2-22T09:35:36Z
2022-02-22T07:37:05Z,42.805,6.029,13.3006,4.60032,2470.39,2022-2-22T09:38:39Z
2022-02-22T07:40:08Z,42.805,6.029,13.3007,4.60033,2470.427,2022-2-22T09:41:42Z
2022-02-22T07:43:11Z,42.805,6.029,13.3000,4.60031,2470.413,2022-2-22T09:44:45Z
2022-02-22T07:46:14Z,42.805,6.029,13.3004,4.60033,2470.366,2022-2-22T09:47:48Z
2022-02-22T07:49:17Z,42.805,6.029,13.3003,4.60031,2470.39,2022-2-22T09:50:51Z
2022-02-22T07:52:20Z,42.805,6.029,13.3004,4.60031,2470.39,2022-2-22T09:53:55Z
2022-02-22T07:55:24Z,42.805,6.029,13.3004,4.60031,2470.404,2022-2-22T09:56:58Z
2022-02-22T07:58:27Z,42.805,6.029,13.3000,4.60032,2470.366,2022-2-22T10:00:01Z
2022-02-22T08:01:30Z,42.805,6.029,13.3003,4.60032,2470.39,2022-2-22T10:03:04Z
2022-02-22T08:04:33Z,42.805,6.029,13.3004,4.60033,2470.39,2022-2-22T10:06:07Z
2022-02-22T08:07:36Z,42.805,6.029,13.3001,4.60033,2470.404,2022-2-22T10:09:10Z
2022-02-22T08:10:39Z,42.805,6.029,13.3004,4.60032,2470.39,2022-2-22T10:12:13Z
2022-02-22T08:13:42Z,42.805,6.029,13.3007,4.60032,2470.427,2022-2-22T10:15:16Z
2022-02-22T08:16:45Z,42.805,6.029,13.3004,4.60034,2470.366,2022-2-22T10:18:20Z
2022-02-22T08:19:49Z,42.805,6.029,13.3004,4.60033,2470.39,2022-2-22T10:21:23Z
2022-02-22T08:22:52Z,42.805,6.029,13.3001,4.60033,2470.39,2022-2-22T10:24:26Z
2022-02-22T08:25:55Z,42.805,6.029,13.3005,4.60033,2470.38,2022-2-22T10:27:29Z
2022-02-22T08:28:58Z,42.805,6.029,13.3006,4.60033,2470.39,2022-2-22T10:30:32Z
2022-02-22T08:32:01Z,42.805,6.029,13.3004,4.60033,2470.413,2022-2-22T10:33:35Z
2022-02-22T08:35:04Z,42.805,6.029,13.3008,4.60035,2470.39,2022-2-22T10:36:38Z
2022-02-22T08:38:07Z,42.805,6.029,13.3009,4.60036,2470.404,2022-2-22T10:39:41Z
2022-02-22T08:41:11Z,42.805,6.029,13.3005,4.60035,2470.45,2022-2-22T10:42:45Z
2022-02-22T08:44:14Z,42.805,6.029,13.3005,4.60033,2470.413,2022-2-22T10:45:48Z
2022-02-22T08:47:17Z,42.805,6.029,13.3008,4.60036,2470.39,2022-2-22T10:48:51Z
2022-02-22T08:50:20Z,42.805,6.029,13.3007,4.60036,2470.39,2022-2-22T10:51:54Z
2022-02-22T08:53:23Z,42.805,6.029,13.3005,4.60036,2470.45,2022-2-22T10:54:57Z
2022-02-22T08:56:26Z,42.805,6.029,13.3006,4.60036,2470.437,2022-2-22T10:58:00Z
2022-02-22T08:59:29Z,42.805,6.029,13.3009,4.60037,2470.413,2022-2-22T11:01:03Z
2022-02-22T09:02:32Z,42.805,6.029,13.3010,4.60039,2470.413,2022-2-22T11:04:07Z
2022-02-22T09:05:36Z,42.805,6.029,13.3008,4.60037,2470.413,2022-2-22T11:07:10Z
2022-02-22T09:08:39Z,42.805,6.029,13.3008,4.60038,2470.427,2022-2-22T11:10:13Z
2022-02-22T09:11:42Z,42.805,6.029,13.3009,4.60037,2470.39,2022-2-22T11:13:16Z
2022-02-22T09:14:45Z,42.805,6.029,13.3006,4.60040,2470.45,2022-2-22T11:16:19Z
2022-02-22T09:17:48Z,42.805,6.029,13.3010,4.60041,2470.427,2022-2-22T11:19:22Z
2022-02-22T09:20:51Z,42.805,6.029,13.3011,4.60040,2470.427,2022-2-22T11:22:25Z
2022-02-22T09:23:54Z,42.805,6.029,13.3009,4.60039,2470.404,2022-2-22T11:25:28Z
2022-02-22T09:26:57Z,42.805,6.029,13.3010,4.60038,2470.427,2022-2-22T11:28:32Z
2022-02-22T09:30:01Z,42.805,6.029,13.3008,4.60038,2470.423,2022-2-22T11:31:35Z
2022-02-22T09:33:04Z,42.805,6.029,13.3011,4.60038,2470.437,2022-2-22T11:34:38Z
2022-02-22T09:36:07Z,42.805,6.029,13.3016,4.60039,2470.413,2022-2-22T11:37:41Z
2022-02-22T09:39:10Z,42.805,6.029,13.3011,4.60038,2470.437,2022-2-22T11:40:44Z
2022-02-22T09:42:13Z,42.805,6.029,13.3010,4.60039,2470.46,2022-2-22T11:43:47Z
2022-02-22T09:45:16Z,42.805,6.029,13.3011,4.60042,2470.427,2022-2-22T11:46:50Z
2022-02-22T09:48:19Z,42.805,6.029,13.3011,4.60039,2470.45,2022-2-22T11:49:53Z
2022-02-22T09:51:22Z,42.805,6.029,13.3009,4.60039,2470.413,2022-2-22T11:52:57Z
2022-02-22T09:54:26Z,42.805,6.029,13.3009,4.60042,2470.413,2022-2-22T11:56:00Z
2022-02-22T09:57:29Z,42.805,6.029,13.3009,4.60042,2470.45,2022-2-22T11:59:03Z
2022-02-22T10:00:32Z,42.805,6.029,13.3010,4.60040,2470.437,2022-2-22T12:02:06Z
2022-02-22T10:03:35Z,42.805,6.029,13.3010,4.60039,2470.46,2022-2-22T12:05:09Z
2022-02-22T10:06:38Z,42.805,6.029,13.3007,4.60039,2470.437,2022-2-22T12:08:12Z
2022-02-22T10:09:41Z,42.805,6.029,13.3015,4.60039,2470.46,2022-2-22T12:11:15Z
2022-02-22T10:12:44Z,42.805,6.029,13.3008,4.60039,2470.46,2022-2-22T12:14:18Z
2022-02-22T10:15:47Z,42.805,6.029,13.3011,4.60039,2470.45,2022-2-22T12:17:22Z
2022-02-22T10:18:51Z,42.805,6.029,13.3007,4.60039,2470.437,2022-2-22T12:20:25Z
2022-02-22T10:21:54Z,42.805,6.029,13.3011,4.60039,2470.46,2022-2-22T12:23:28Z
2022-02-22T10:24:57Z,42.805,6.029,13.3011,4.60039,2470.474,2022-2-22T12:26:31Z
2022-02-22T10:28:00Z,42.805,6.029,13.3011,4.60041,2470.437,2022-2-22T12:29:34Z
2022-02-22T10:31:03Z,42.805,6.029,13.3009,4.60039,2470.474,2022-2-22T12:32:37Z
2022-02-22T10:34:06Z,42.805,6.029,13.3008,4.60041,2470.46,2022-2-22T12:35:40Z
2022-02-22T10:37:09Z,42.805,6.029,13.3008,4.60039,2470.45,2022-2-22T12:38:43Z
2022-02-22T10:40:12Z,42.805,6.029,13.3012,4.60039,2470.474,2022-2-22T12:41:47Z
2022-02-22T10:43:16Z,42.805,6.029,13.3012,4.60040,2470.437,2022-2-22T12:44:50Z
2022-02-22T10:46:19Z,42.805,6.029,13.3011,4.60039,2470.483,2022-2-22T12:47:53Z
2022-02-22T10:49:22Z,42.805,6.029,13.3011,4.60039,2470.46,2022-2-22T12:50:56Z
2022-02-22T10:52:25Z,42.805,6.029,13.3007,4.60041,2470.483,2022-2-22T12:53:59Z
2022-02-22T10:55:28Z,42.805,6.029,13.3009,4.60039,2470.46,2022-2-22T12:57:02Z
2022-02-22T10:58:31Z,42.805,6.029,13.3010,4.60039,2470.483,2022-2-22T13:00:05Z
2022-02-22T11:01:34Z,42.805,6.029,13.3012,4.60039,2470.437,2022-2-22T13:03:09Z
2022-02-22T11:04:37Z,42.805,6.029,13.3008,4.60039,2470.497,2022-2-22T13:06:12Z
2022-02-22T11:07:41Z,42.805,6.029,13.3014,4.60044,2470.474,2022-2-22T13:09:15Z
2022-02-22T11:10:44Z,42.805,6.029,13.3013,4.60040,2470.483,2022-2-22T13:12:18Z
2022-02-22T11:13:47Z,42.805,6.029,13.3014,4.60041,2470.497,2022-2-22T13:15:21Z
2022-02-22T11:16:50Z,42.805,6.029,13.3011,4.60041,2470.483,2022-2-22T13:18:24Z
2022-02-22T11:19:53Z,42.805,6.029,13.3012,4.60041,2470.437,2022-2-22T13:21:27Z
2022-02-22T11:22:56Z,42.805,6.029,13.3014,4.60042,2470.437,2022-2-22T13:24:30Z
2022-02-22T11:25:59Z,42.805,6.029,13.3011,4.60043,2470.46,2022-2-22T13:27:34Z
2022-02-22T11:29:03Z,42.805,6.029,13.3013,4.60040,2470.497,2022-2-22T13:30:37Z
2022-02-22T11:32:06Z,42.805,6.029,13.3009,4.60041,2470.46,2022-2-22T13:33:40Z
2022-02-22T11:35:09Z,42.805,6.029,13.3013,4.60041,2470.474,2022-2-22T13:36:43Z
2022-02-22T11:38:12Z,42.805,6.029,13.3011,4.60043,2470.46,2022-2-22T13:39:46Z
2022-02-22T11:41:15Z,42.805,6.029,13.3013,4.60041,2470.45,2022-2-22T13:42:49Z
2022-02-22T11:44:18Z,42.805,6.029,13.3009,4.60042,2470.474,2022-2-22T13:45:52Z
2022-02-22T11:47:21Z,42.805,6.029,13.3012,4.60043,2470.437,2022-2-22T13:48:55Z
2022-02-22T11:50:24Z,42.805,6.029,13.3014,4.60041,2470.474,2022-2-22T13:51:59Z
2022-02-22T11:53:28Z,42.805,6.029,13.3011,4.60041,2470.497,2022-2-22T13:55:02Z
2022-02-22T11:56:31Z,42.805,6.029,13.3011,4.60041,2470.427,2022-2-22T13:58:05Z
2022-02-22T11:59:34Z,42.805,6.029,13.3011,4.60042,2470.437,2022-2-22T14:01:08Z
2022-02-22T12:02:37Z,42.805,6.029,13.3012,4.60042,2470.474,2022-2-22T14:04:11Z
2022-02-22T12:05:40Z,42.805,6.029,13.3012,4.60043,2470.45,2022-2-22T14:07:14Z
2022-02-22T12:08:43Z,42.805,6.029,13.3015,4.60042,2470.483,2022-2-22T14:10:17Z
2022-02-22T12:11:46Z,42.805,6.029,13.3010,4.60041,2470.437,2022-2-22T14:13:20Z
2022-02-22T12:14:49Z,42.805,6.029,13.3010,4.60042,2470.437,2022-2-22T14:16:24Z
2022-02-22T12:17:53Z,42.805,6.029,13.3013,4.60042,2470.45,2022-2-22T14:19:27Z
2022-02-22T12:20:56Z,42.805,6.029,13.3011,4.60042,2470.413,2022-2-22T14:22:30Z
2022-02-22T12:23:59Z,42.805,6.029,13.3015,4.60041,2470.483,2022-2-22T14:25:33Z
2022-02-22T12:27:02Z,42.805,6.029,13.3009,4.60041,2470.437,2022-2-22T14:28:36Z
2022-02-22T12:30:05Z,42.805,6.029,13.3011,4.60041,2470.474,2022-2-22T14:31:39Z
2022-02-22T12:33:08Z,42.805,6.029,13.3015,4.60042,2470.474,2022-2-22T14:34:42Z
2022-02-22T12:36:11Z,42.805,6.029,13.3011,4.60041,2470.437,2022-2-22T14:37:45Z
2022-02-22T12:39:14Z,42.805,6.029,13.3016,4.60044,2470.45,2022-2-22T14:40:49Z
2022-02-22T12:42:18Z,42.805,6.029,13.3009,4.60042,2470.474,2022-2-22T14:43:52Z
2022-02-22T12:45:21Z,42.805,6.029,13.3012,4.60042,2470.437,2022-2-22T14:46:55Z
2022-02-22T12:48:24Z,42.805,6.029,13.3011,4.60042,2470.46,2022-2-22T14:49:58Z
2022-02-22T12:51:27Z,42.805,6.029,13.3011,4.60041,2470.437,2022-2-22T14:53:01Z
2022-02-22T12:54:30Z,42.805,6.029,13.3013,4.60043,2470.399,2022-2-22T14:56:04Z
2022-02-22T12:57:33Z,42.805,6.029,13.3010,4.60043,2470.45,2022-2-22T14:59:07Z
2022-02-22T13:00:36Z,42.805,6.029,13.3010,4.60040,2470.46,2022-2-22T15:02:10Z
2022-02-22T13:03:39Z,42.805,6.029,13.3009,4.60042,2470.427,2022-2-22T15:05:14Z
2022-02-22T13:06:43Z,42.805,6.029,13.3010,4.60041,2470.46,2022-2-22T15:08:17Z
2022-02-22T13:09:46Z,42.805,6.029,13.3011,4.60041,2470.404,2022-2-22T15:11:20Z
2022-02-22T13:12:49Z,42.805,6.029,13.3014,4.60040,2470.437,2022-2-22T15:14:23Z
2022-02-22T13:15:52Z,42.805,6.029,13.3020,4.60067,2470.413,2022-2-22T15:17:26Z
2022-02-22T13:18:55Z,42.805,6.029,13.3020,4.60064,2470.437,2022-2-22T15:20:29Z
2022-02-22T13:21:58Z,42.805,6.029,13.3015,4.60044,2470.427,2022-2-22T15:23:32Z
2022-02-22T13:25:01Z,42.805,6.029,13.3014,4.60042,2470.413,2022-2-22T15:26:36Z
2022-02-22T13:28:05Z,42.805,6.029,13.3016,4.60042,2470.404,2022-2-22T15:29:39Z
2022-02-22T13:31:08Z,42.805,6.029,13.3011,4.60040,2470.413,2022-2-22T15:32:42Z
2022-02-22T13:34:11Z,42.805,6.029,13.3014,4.60042,2470.427,2022-2-22T15:35:45Z
2022-02-22T13:37:14Z,42.805,6.029,13.3013,4.60042,2470.413,2022-2-22T15:38:48Z
2022-02-22T13:40:17Z,42.805,6.029,13.3013,4.60041,2470.427,2022-2-22T15:41:51Z
2022-02-22T13:43:20Z,42.805,6.029,13.3012,4.60044,2470.39,2022-2-22T15:44:54Z
2022-02-22T13:46:23Z,42.805,6.029,13.3016,4.60043,2470.39,2022-2-22T15:47:57Z
2022-02-22T13:49:26Z,42.805,6.029,13.3008,4.60044,2470.427,2022-2-22T15:51:01Z
2022-02-22T13:52:30Z,42.805,6.029,13.3008,4.60040,2470.39,2022-2-22T15:54:04Z
2022-02-22T13:55:33Z,42.805,6.029,13.3010,4.60040,2470.413,2022-2-22T15:57:07Z
2022-02-22T13:58:36Z,42.805,6.029,13.3009,4.60040,2470.427,2022-2-22T16:00:10Z
2022-02-22T14:01:39Z,42.805,6.029,13.3011,4.60039,2470.39,2022-2-22T16:03:13Z
2022-02-22T14:04:42Z,42.805,6.029,13.3011,4.60040,2470.413,2022-2-22T16:06:16Z
2022-02-22T14:07:45Z,42.805,6.029,13.3008,4.60041,2470.39,2022-2-22T16:09:19Z
2022-02-22T14:10:48Z,42.805,6.029,13.3006,4.60039,2470.39,2022-2-22T16:12:22Z
2022-02-22T14:13:51Z,42.805,6.029,13.3006,4.60041,2470.366,2022-2-22T16:15:26Z
2022-02-22T14:16:55Z,42.805,6.029,13.3009,4.60040,2470.404,2022-2-22T16:18:29Z
2022-02-22T14:19:58Z,42.805,6.029,13.3010,4.60039,2470.39,2022-2-22T16:21:32Z
2022-02-22T14:23:01Z,42.805,6.029,13.3006,4.60039,2470.39,2022-2-22T16:24:35Z
2022-02-22T14:26:04Z,42.805,6.029,13.3014,4.60039,2470.39,2022-2-22T16:27:38Z
2022-02-22T14:29:07Z,42.805,6.029,13.3009,4.60039,2470.404,2022-2-22T16:30:41Z
2022-02-22T14:32:10Z,42.805,6.029,13.3011,4.60039,2470.38,2022-2-22T16:33:44Z
2022-02-22T14:35:13Z,42.805,6.029,13.3012,4.60040,2470.39,2022-2-22T16:36:47Z
2022-02-22T14:38:16Z,42.805,6.029,13.3009,4.60041,2470.39,2022-2-22T16:39:51Z
2022-02-22T14:41:20Z,42.805,6.029,13.3009,4.60039,2470.404,2022-2-22T16:42:54Z
2022-02-22T14:44:23Z,42.805,6.029,13.3011,4.60039,2470.39,2022-2-22T16:45:57Z
2022-02-22T14:47:26Z,42.805,6.029,13.3016,4.60039,2470.413,2022-2-22T16:49:00Z
2022-02-22T14:50:29Z,42.805,6.029,13.3014,4.60041,2470.366,2022-2-22T16:52:03Z
2022-02-22T14:53:32Z,42.805,6.029,13.3012,4.60043,2470.404,2022-2-22T16:55:06Z
2022-02-22T14:56:35Z,42.805,6.029,13.3013,4.60040,2470.366,2022-2-22T16:58:09Z
2022-02-22T14:59:38Z,42.805,6.029,13.3014,4.60046,2470.39,2022-2-22T17:01:12Z
2022-02-22T15:02:41Z,42.805,6.029,13.3029,4.60054,2470.39,2022-2-22T17:04:16Z
2022-02-22T15:05:45Z,42.805,6.029,13.3015,4.60045,2470.33,2022-2-22T17:07:19Z
2022-02-22T15:08:48Z,42.805,6.029,13.3012,4.60041,2470.366,2022-2-22T17:10:22Z
2022-02-22T15:11:51Z,42.805,6.029,13.3012,4.60040,2470.343,2022-2-22T17:13:25Z
2022-02-22T15:14:54Z,42.805,6.029,13.3013,4.60039,2470.39,2022-2-22T17:16:28Z